Location: Drummondville
(45.8830°N, 72.4830°W)
Time: 23:03:10
(UTC-05:00)

Envisat - Pass Details

Date: 10 November 2017
Orbit: 764 x 766 km, 98.2° (Epoch: 24 November)

Event Time Altitude Azimuth Distance (km) Brightness Sun altitude
Exits shadow 19:23:14 18° 352° (N) 1,846 5.1 -31.3°
Drops below altitude 10° 19:24:26 10° 350° (N) 2,313 5.6 -31.5°
Sets 19:26:45 0° 349° (N) 3,243 6.5 -31.9°
